MDT,Max TemperatureF,Mean TemperatureF,Min TemperatureF,Max Dew PointF,MeanDew PointF,Min DewpointF,Max Humidity, Mean Humidity, Min Humidity, Max Sea Level PressureIn, Mean Sea Level PressureIn, Min Sea Level PressureIn, Max VisibilityMiles, Mean VisibilityMiles, Min VisibilityMiles, Max Wind SpeedMPH, Mean Wind SpeedMPH, Max Gust SpeedMPH,PrecipitationIn, CloudCover, Events, WindDirDegrees
2014-6-1,68,51,34,39,32,24,89,53,20,30.08,30.00,29.94,,,,9,4,17,0.01,,,260
2014-6-2,60,50,40,44,38,33,95,65,36,30.05,29.99,29.91,,,,7,4,,0.05,,,289
2014-6-3,70,52,35,42,34,28,95,55,22,29.93,29.84,29.74,,,,10,4,17,0.00,,,263
2014-6-4,67,54,42,41,34,26,84,49,23,29.98,29.86,29.76,,,,10,5,24,0.02,,,268
2014-6-5,53,44,34,42,33,20,96,74,28,30.18,30.04,29.85,,,,8,4,20,0.15,,,51
2014-6-6,58,44,31,33,25,12,97,52,17,30.21,30.12,30.05,,,,9,3,,0.01,,,239
2014-6-7,61,44,27,27,22,14,90,44,16,30.16,30.10,30.06,,,,8,2,,0.00,,,261
2014-6-8,64,47,30,35,30,26,83,50,27,30.17,30.06,29.81,,,,10,4,21,0.01,,,244
2014-6-9,59,52,45,45,34,21,94,55,26,29.95,29.82,29.72,,,,16,7,25,0.10,,,252
2014-6-10,60,44,28,32,25,15,94,49,18,30.00,29.95,29.89,,,,13,4,18,0.01,,,270
2014-6-11,63,50,38,37,32,25,84,53,23,30.12,30.05,30.01,,,,12,5,18,0.00,,,12
2014-6-12,64,50,35,39,34,29,93,57,27,30.04,29.90,29.75,,,,9,3,17,0.01,,,35
2014-6-13,50,44,38,43,40,36,95,83,67,29.95,29.80,29.70,,,,7,4,,0.81,,,34
2014-6-14,62,50,37,46,40,33,99,75,35,29.95,29.87,29.78,,,,9,2,18,0.08,,,69
2014-6-15,54,47,40,47,43,40,99,88,65,29.82,29.76,29.70,,,,6,2,,0.26,,,87
2014-6-16,51,47,42,45,42,40,99,90,68,29.91,29.77,29.70,,,,6,1,,0.24,,,179
2014-6-17,50,46,41,45,43,40,99,92,77,30.06,30.02,29.92,,,,5,2,,0.28,,,64
2014-6-18,65,53,41,48,42,36,97,70,37,30.02,29.91,29.81,,,,8,3,,0.00,,,58
2014-6-19,65,56,47,49,46,44,93,72,50,29.88,29.84,29.80,,,,7,2,,0.00,,,48
2014-6-20,66,58,45,46,37,31,94,47,27,29.94,29.84,29.77,,,,13,5,21,0.22,,,241
2014-6-21,64,53,42,45,38,28,93,61,27,30.06,29.99,29.93,,,,9,5,,0.01,,,221
2014-6-22,68,52,35,42,35,30,97,54,26,30.19,30.11,30.06,,,,6,3,,0.00,,,30
2014-6-23,70,56,41,48,41,38,92,62,31,30.15,30.10,30.02,,,,9,3,17,0.05,,,70
2014-6-24,70,54,37,52,43,38,100,70,31,30.09,29.99,29.87,,,,7,2,,0.04,,,233
2014-6-25,64,54,45,48,43,38,98,71,38,29.97,29.91,29.85,,,,9,5,20,0.07,,,236
2014-6-26,69,54,38,46,38,30,97,60,23,29.93,29.81,29.68,,,,7,3,,0.01,,,309
2014-6-27,69,56,42,49,42,38,93,68,34,29.73,29.69,29.61,,,,12,4,18,0.01,,,231
2014-6-28,63,55,47,48,43,38,91,68,41,29.81,29.73,29.68,,,,12,6,22,0.00,,,237
2014-6-29,61,54,47,43,39,34,82,58,37,30.00,29.88,29.81,,,,10,7,21,0.00,,,238
2014-6-30,63,55,47,42,40,35,77,56,36,30.25,30.14,30.02,,,,9,5,17,0.01,,,235